Other Public Products
Issued by NWS Grand Forks, ND

Home | Current Version | Previous Version | Graphics & Text | Print | Product List | Glossary On
Versions: 1 2 3 4 5 6 7 8 9 10 11 12 13 14 15 16 17 18 19 20 21 22 23 24 25 26 27 28 29 30 31 32 33 34 35 36 37 38 39 40 41 42 43 44 45 46 47 48 49 50
000
FPUS83 KFGF 281710
OPUFGF
PRAIRIE TO PINES WEATHER ROUNDUP
NATIONAL WEATHER SERVICE EASTERN NORTH DAKOTA/GRAND FORKS ND
1200 PM CDT FRI APR 28 2017

 **SATELLITE DATA USED TO AUGMENT SKY COVER AT AUTOMATED STATIONS**
 *****  WEATHER ACROSS EASTERN NORTH DAKOTA  *****

CITY           SKY/WX    TMP DP  RH WIND       PRES   REMARKS
GRAND FORKS    FAIR      47  26  44 N18       29.99R
GRAND FORKS AF FAIR      46  23  39 N16       29.99R
GRAND CITY NWS NOT AVBL
BUXTON         NOT AVBL
DEVILS LAKE    FAIR      46  12  25 N14       30.02R
FARGO          FAIR      45  28  51 N13       30.00R
WAHPETON ARPT  FAIR      43  28  56 N9G16     30.01R
$$

 *****  WEATHER ACROSS CENTRAL AND WESTERN NORTH DAKOTA  *****

CITY           SKY/WX    TMP DP  RH WIND       PRES   REMARKS
JAMESTOWN      FAIR      47  22  37 N16G22    30.00R
BISMARCK       FAIR      50  18  28 NE12G17   30.04R
MINOT          FAIR      50  14  23 CALM      30.04R
MINOT AFB      FAIR      47  16  28 NW5       30.04R
GARRISON         N/A     47  17  30 NE6       30.04R
WILLISTON      FAIR      51  25  36 SE6       30.05R
DICKINSON      FAIR      45  23  42 E8        30.00R
HETTINGER      FAIR      47  25  42 E14       30.00R
$$

 *****  OTHER OBSERVATIONS NORTHEAST NORTH DAKOTA  *****

CITY           SKY/WX    TMP DP  RH WIND       PRES   REMARKS
WALHALLA       NOT AVBL
LANGDON        FAIR      50  10  20 N17G23    29.99R
CAVALIER       FAIR      46  18  31 NW18G25   29.99R
GRAFTON        FAIR      45  21  39 N17G25    30.00R
CANDO          NOT AVBL
FORT TOTTEN      N/A     47  20  34 N7        29.95S
ROLLA          FAIR      46   9  21 N16G23    30.02R
RUGBY          NOT AVBL
 ***** THE ABOVE OBSERVATIONS ARE NON NWS ARE NOT QUALITY
        CONTROLLED AND MAY MIS-REPORT RAIN FOR SNOW...
$$

 *****  OTHER OBSERVATIONS SOUTHEAST NORTH DAKOTA *****

CITY           SKY/WX    TMP DP  RH WIND       PRES   REMARKS
COOPERSTOWN    FAIR      46  23  39 N13G20    30.00S
VALLEY CITY    FAIR      46  19  34 N18       30.01S
OAKES          NOT AVBL
GWINNER        SUNNY     45  27  49 MISG      30.01R
SHEYENNE NWR     N/A     45  24  44 N8        29.95S
BUFFALO        NOT AVBL
WYNDMERE         N/A     45  30  57 N13         N/A
 ***** THE ABOVE OBSERVATIONS ARE NON NWS ARE NOT QUALITY
       CONTROLLED AND MAY MIS-REPORT RAIN FOR SNOW...
$$

  *****  WEATHER ACROSS NORTHERN MINNESOTA  *****

CITY           SKY/WX    TMP DP  RH WIND       PRES   REMARKS
FLAG ISLAND    FAIR      37  18  44 NW18      29.91R
WARROAD        FAIR      41  21  45 NW12      29.93R
ROSEAU         FAIR      43  21  42 N9        29.93S
HALLOCK        FAIR      46  12  25 N16G25    29.97R
THF RVR FALLS  FAIR      40  23  50 NW17      29.97R
HALSTAD          N/A     42  28  58 NW8         N/A
FOSSTON        FAIR      43  19  39 NW10G20   29.96R
BAUDETTE       FAIR      39  15  37 NW18G25   29.89R
WASKISH        CLOUDY    43  21  42 N12G20    29.90R
CROOKSTON      FAIR      43  27  52 N15       29.99R
$$
  *****  WEATHER ACROSS CENTRAL AND WEST MINNESOTA  *****

CITY           SKY/WX    TMP DP  RH WIND       PRES   REMARKS
BEMIDJI        FAIR      38  22  50 NW12      29.92R
PARK RAPIDS    FAIR      43  19  38 N13       29.92R
WADENA         FAIR      41  30  65 CALM      29.94S
DETROIT LAKES  FAIR      37  30  75 N10G18    29.98R
MOORHEAD       FAIR      43  28  56 NW14G20   30.00S
FERGUS FALLS   FAIR      43  27  52 N7G18     29.98S
ELBOW LAKE     FAIR      41  29  61 NE7       29.98S
MORRIS MN      FAIR      45  30  57 N17G23    29.96S
STAPLES        FAIR      39  28  65 NW10      29.95R
WHEATON        FAIR      45  27  49 N13G20    30.01S
$$
  *****  WEATHER ELSEWHERE ACROSS MINNESOTA  *****

CITY           SKY/WX    TMP DP  RH WIND       PRES   REMARKS
DULUTH         PTSUNNY   38  26  62 W16G25    29.87R
INTRNTL FALLS  PTSUNNY   37  23  56 NW18G28   29.86R
ELY            PTSUNNY   36  21  55 W16G25    29.80R
CLOQUET        CLOUDY    37  23  56 W15       29.89R
BRAINERD       FAIR      40  25  55 N8        29.94S
HIBBING        FAIR      39  23  52 NW18      29.84R
ALEXANDRIA     FAIR      43  28  55 N9        29.96S
SAINT CLOUD    FAIR      42  30  62 N12G22    29.95R
MINNEAPOLIS    PTSUNNY   43  25  49 CALM      29.95R
$$

  *****  WEATHER ACROSS SOUTH DAKOTA  *****

CITY           SKY/WX    TMP DP  RH WIND       PRES   REMARKS
SIOUX FALLS    PTSUNNY   42  30  62 NE16      29.94S
BROOKINGS      FAIR      42  27  55 NE14      29.95R
WATERTOWN      FAIR      44  26  49 NE16      29.93S
HURON          FAIR      48  26  42 NE17      29.97R
SISSETON         N/A     48  29  47 NE22      29.98R
ABERDEEN       FAIR      48  22  35 NE24G30   29.98S
MITCHELL       FAIR      47  26  44 NE17      29.96S
PIERRE         FAIR      46  24  42 E16G22    29.97R
MOBRIDGE       FAIR      51  20  29 NE14      29.96S
RAPID CITY     CLOUDY    42  29  59 E9        29.94R
$$

  *****  SOME WEATHER IN NEARBY STATES *****

CITY           SKY/WX    TMP DP  RH WIND       PRES   REMARKS
GLASGOW MT     FAIR      50  21  32 E5        30.02R
GREAT FALLS MT CLOUDY    44  34  67 CALM      30.03R
CHEYENNE WY    FAIR      40  28  62 N14G26    29.68R
SCOTTSBLUFF NE HVY SNOW  34  31  88 E17       29.80R VSB 1/4 WCI  23
OMAHA NE       LGT RAIN  39  33  79 NE18G29   29.83S
DES MOINES IA  LGT RAIN  39  35  86 NE20      29.85F
DAVENPORT IA   LGT RAIN  42  38  85 NE13      29.92S FOG
CHICAGO IL     CLOUDY    58  45  62 S10       29.93F
EAU CLAIRE WI  FAIR      43  25  49 VRB5      29.93R
LA CROSSE WI   FAIR      47  31  53 VRB3      29.92F
$$

  *****  SOME NATIONAL WEATHER *****

CITY           SKY/WX    TMP DP  RH WIND       PRES   REMARKS
LA GUARDIA NY  FAIR      78  61  55 CALM      29.99R
RALEIGH NC     PTSUNNY   82  69  64 SW12      30.08S
ATLANTA GA     FAIR      80  65  59 S12G21    30.05S
NEW ORLEANS LA CLOUDY    82  74  76 S12G24    29.89R
OKLAHOMA CITY  PTSUNNY   73  56  54 W8        29.64R
ALBUQUERQUE NM CLOUDY    42  36  79 N18       29.75S
SALT LAKE CITY LGT SNOW  38  34  85 NW14      29.92R FOG
LOS ANGELES CA FAIR      75  33  21 N21G28    29.80S
BOISE ID       FAIR      47  32  56 NW20      30.08R
SEATTLE WA     PTSUNNY   47  41  80 S5        30.35S
$$

*** WEATHER ACROSS MANITOBA...SASKATCHEWAN AND ONTARIO ***
                ***ONTARIO***

CITY           SKY/WX    TMP DP  RH WIND       PRES   REMARKS
GERALDTON      FLURRIES  25  18  74 W10G20    29.62R WCI  15
THUNDER BAY    FLURRIES  34  21  60 W16       29.74R WCI  23
SIOUX LOOKOUT  LGT SNOW  28  21  74 NW24G31   29.78R DRFTSNOWWCI  14
TORONTO        MOSUNNY   59  43  55 SW14G23   29.98R
BIG TROUT LK   LGT SNOW  27  19  74 N17G28    29.71R WCI  14
PICKLE LAKE    LGT SNOW  25  19  80 NW7G20    29.67R DRFTSNOWWCI  17
DRYDEN         LGT SNOW  30  25  80 N10G29    29.83  WCI  21
KENORA         PTSUNNY   37  23  56 N9G17     29.88R
$$
                *** MANITOBA***

CITY           SKY/WX    TMP DP  RH WIND       PRES   REMARKS
BRANDON        MOSUNNY   50  10  20 N14G21    30.03R
DAUPHIN        SUNNY     50   7  17 N12G20    30.05R
ISLAND LAKE    PTSUNNY   34   1  25 N10G17    29.98R
PILOT MOUND      N/A     46   7  19 N14G22      N/A
THE PAS        MOSUNNY   45   7  21 N7        30.07R
THOMPSON       PTSUNNY   43  12  28 N12G20    30.02S
WINNIPEG       MOSUNNY   46  10  23 N17       29.99R
LYNN LAKE      SUNNY     43  14  31 NE8       30.07R
CHURCHILL      CLOUDY    27  25  93 N22       30.05R WCI  12
GILLAM         PTSUNNY   37  12  35 NW7       29.99S
$$
                ***SASKATCHEWAN***

CITY           SKY/WX    TMP DP  RH WIND       PRES   REMARKS
ESTEVAN        MOSUNNY   48  25  40 CALM      30.05R
KINDERSLEY     CLOUDY    36  32  87 W10G18    30.01R
LLOYDMINSTER   PTSUNNY   39  32  75 NW5       30.04S
PRINCE ALBERT  PTSUNNY   48  16  27 E8        30.04R
REGINA         MOSUNNY   52  19  28 VRB2      30.02R
YORKTON        SUNNY     46  18  31 W3        30.04S



USA.gov is the U.S. government's official web portal to all federal, state and local government web resources and services.